Weather History for Istanbul, Turkey

Change the Weather History Date:

Tuesday, February 26, 2013

  Actual Average Record
Temperature  
Mean Temperature 47 °F -  
Max Temperature 50 °F 50 °F 60 °F (2001)
Min Temperature 44 °F 39 °F 30 °F (2003)
Degree Days  
Heating Degree Days 18    
Moisture  
Dew Point 43 °F    
Average Humidity 85    
Maximum Humidity 100    
Minimum Humidity 69    
Precipitation  
Precipitation 0.31 in - - ()
Sea Level Pressure  
Sea Level Pressure 30.11 in    
Wind  
Wind Speed 9 mph ()    
Max Wind Speed 21 mph    
Max Gust Speed -    
Visibility 4.4 miles    
Events Rain , Thunderstorm    
Averages and records for this station are not official NWS values.
T = Trace of Precipitation, MM = Missing Value Source: Averaged Metar Reports

Daily Weather History Graph

Daily Weather History Graph

Search for Another Location

Airport:

Trip Planner

Search our weather history database for the weather conditions in past years. The results will help you decide how hot, cold, wet, or windy it might be!

Date:

Astronomy

Feb. 26, 2013 Rise Set
Actual Time 6:43 AM EET 5:52 PM EET
Civil Twilight 6:15 AM EET 6:19 PM EET
Nautical Twilight 5:44 AM EET 6:51 PM EET
Astronomical Twilight 5:12 AM EET 7:23 PM EET
Moon 6:48 PM EET (2/26) 6:34 AM EET (2/26)
Length of Visible Light 12h 04m
Length of Day
11h 08m
Full, 100% of the Moon is Illuminated
Feb 26
Full
Mar 4
Last Quarter
Mar 11
New
Mar 19
First Quarter
Mar 27
Full

Hourly Weather History & Observations

Time (EET) Temp. Windchill Dew Point Humidity Pressure Visibility Wind Dir Wind Speed Gust Speed Precip Events Conditions
12:20 AM 44.6 °F 37.4 °F 44.6 °F 100% 30.15 in 3.7 mi North 16.1 mph - N/A   Mostly Cloudy
12:50 AM 44.6 °F 36.4 °F 44.6 °F 100% 30.15 in 3.7 mi NNE 20.7 mph - N/A   Mostly Cloudy
1:20 AM 46.4 °F 41.1 °F 42.8 °F 87% 30.12 in 3.7 mi NNE 11.5 mph - N/A   Mostly Cloudy
1:50 AM 46.4 °F 42.9 °F 42.8 °F 87% 30.12 in 3.7 mi Variable 6.9 mph - N/A   Mostly Cloudy
2:00 AM 47 °F - 41 °F 74% 30.15 in 4 mi NNE 6.9 mph - -   Mist
2:20 AM 46.4 °F 42.9 °F 41.0 °F 81% 30.12 in 3.7 mi NE 6.9 mph - N/A   Mostly Cloudy
2:50 AM 46.4 °F 41.9 °F 41.0 °F 81% 30.12 in 3.7 mi NE 9.2 mph - N/A   Mostly Cloudy
3:20 AM 46.4 °F 44.3 °F 42.8 °F 87% 30.12 in 3.7 mi NNE 4.6 mph - N/A   Mostly Cloudy
3:50 AM 44.6 °F 42.2 °F 41.0 °F 87% 30.12 in 3.7 mi North 4.6 mph - N/A   Mostly Cloudy
4:20 AM 44.6 °F 41.4 °F 41.0 °F 87% 30.12 in 3.7 mi North 5.8 mph - N/A   Mostly Cloudy
4:50 AM 44.6 °F 40.2 °F 42.8 °F 93% 30.12 in 3.7 mi North 8.1 mph - N/A   Mostly Cloudy
5:20 AM 44.6 °F 40.2 °F 42.8 °F 93% 30.12 in 3.7 mi North 8.1 mph - N/A   Mostly Cloudy
5:50 AM 44.6 °F 40.2 °F 42.8 °F 93% 30.15 in 3.7 mi North 8.1 mph - N/A   Mostly Cloudy
6:20 AM 44.6 °F 40.7 °F 42.8 °F 93% 30.15 in 3.7 mi NNE 6.9 mph - N/A   Mostly Cloudy
6:50 AM 44.6 °F 40.7 °F 42.8 °F 93% 30.12 in 3.7 mi NNE 6.9 mph - N/A   Mostly Cloudy
7:20 AM 46.4 °F 41.9 °F 42.8 °F 87% 30.12 in 3.7 mi NE 9.2 mph - N/A   Mostly Cloudy
7:50 AM 44.6 °F 39.7 °F 42.8 °F 93% 30.15 in 3.7 mi NNE 9.2 mph - N/A   Mostly Cloudy
8:00 AM 45 °F - 44 °F 96% 30.17 in 4 mi NNE 9.2 mph - -   Mist
8:20 AM 46.4 °F 41.9 °F 42.8 °F 87% 30.15 in 3.7 mi NE 9.2 mph - N/A   Mostly Cloudy
8:50 AM 46.4 °F 42.4 °F 41.0 °F 81% 30.15 in 3.7 mi NE 8.1 mph - N/A   Mostly Cloudy
9:20 AM 46.4 °F 42.4 °F 41.0 °F 81% 30.15 in 4.3 mi NE 8.1 mph - N/A   Scattered Clouds
9:50 AM 46.4 °F 43.5 °F 41.0 °F 81% 30.15 in 3.7 mi NNE 5.8 mph - N/A   Mostly Cloudy
10:20 AM 46.4 °F 42.9 °F 41.0 °F 81% 30.15 in 3.7 mi NNE 6.9 mph - N/A   Scattered Clouds
10:50 AM 48.2 °F - 42.8 °F 82% 30.12 in 3.7 mi NNE 5.8 mph - N/A   Scattered Clouds
11:20 AM 48.2 °F - 42.8 °F 82% 30.12 in 3.7 mi NE 6.9 mph - N/A   Mostly Cloudy
11:50 AM 48.2 °F - 42.8 °F 82% 30.12 in 3.7 mi North 5.8 mph - N/A   Scattered Clouds
12:20 PM 48.2 °F - 42.8 °F 82% 30.12 in 3.7 mi North 9.2 mph - N/A   Scattered Clouds
12:50 PM 48.2 °F - 42.8 °F 82% 30.12 in 3.7 mi North 6.9 mph - N/A   Mostly Cloudy
1:20 PM 50.0 °F - 42.8 °F 76% 30.09 in 3.7 mi North 8.1 mph - N/A   Mostly Cloudy
1:50 PM 50.0 °F - 42.8 °F 76% 30.09 in 3.7 mi North 6.9 mph - N/A   Mostly Cloudy
2:00 PM 49 °F - 42 °F 69% 30.12 in 4 mi North 6.9 mph - -   Mist
2:20 PM 50.0 °F - 42.8 °F 76% 30.09 in 4.3 mi NNE 10.4 mph - N/A   Mostly Cloudy
2:50 PM 50.0 °F - 42.8 °F 76% 30.06 in 4.3 mi NNE 11.5 mph - N/A   Mostly Cloudy
3:20 PM 50.0 °F - 42.8 °F 76% 30.06 in 4.3 mi NE 8.1 mph - N/A   Mostly Cloudy
3:50 PM 50.0 °F - 42.8 °F 76% 30.06 in 4.3 mi North 10.4 mph - N/A   Mostly Cloudy
4:20 PM 50.0 °F - 42.8 °F 76% 30.06 in 6.2 mi NNE 9.2 mph - N/A   Mostly Cloudy
4:50 PM 48.2 °F - 41.0 °F 76% 30.06 in 6.2 mi Variable 10.4 mph - N/A   Mostly Cloudy
5:20 PM 48.2 °F - 42.8 °F 82% 30.06 in 6.2 mi NE 9.2 mph - N/A   Mostly Cloudy
5:50 PM 48.2 °F - 41.0 °F 76% 30.06 in 6.2 mi NNE 9.2 mph - N/A   Mostly Cloudy
6:20 PM 48.2 °F - 41.0 °F 76% 30.06 in 6.2 mi NE 9.2 mph - N/A   Scattered Clouds
6:50 PM 46.4 °F 40.4 °F 41.0 °F 81% 30.06 in 6.2 mi NE 13.8 mph - N/A   Scattered Clouds
7:20 PM 46.4 °F 40.7 °F 42.8 °F 87% 30.06 in 6.2 mi NE 12.7 mph - N/A   Mostly Cloudy
7:50 PM 46.4 °F 41.1 °F 42.8 °F 87% 30.09 in 6.2 mi NW 11.5 mph - N/A   Mostly Cloudy
8:00 PM 46 °F - 42 °F 80% 30.13 in 6 mi NW 11.5 mph - -   Mostly Cloudy
8:20 PM 46.4 °F 41.1 °F 42.8 °F 87% 30.12 in 6.2 mi WNW 11.5 mph - N/A   Mostly Cloudy
8:50 PM 46.4 °F 40.7 °F 42.8 °F 87% 30.12 in 5.0 mi NW 12.7 mph - N/A Rain Light Rain Showers
9:20 PM 46.4 °F 39.8 °F 44.6 °F 93% 30.09 in 2.5 mi NNW 16.1 mph - N/A Rain , Thunderstorm Light Thunderstorms and Rain
9:50 PM 46.4 °F 40.7 °F 44.6 °F 93% 30.09 in 2.5 mi NNW 12.7 mph - N/A Rain , Thunderstorm Light Thunderstorms and Rain
10:20 PM 46.4 °F 41.1 °F 44.6 °F 93% 30.06 in 5.0 mi NNE 11.5 mph - N/A Rain Light Rain Showers
10:50 PM 46.4 °F 42.9 °F 44.6 °F 93% 30.06 in 5.0 mi East 6.9 mph - N/A Rain Light Rain Showers
11:20 PM 46.4 °F 41.5 °F 44.6 °F 93% 30.06 in 6.2 mi East 10.4 mph - N/A Rain Light Rain Showers
11:50 PM 46.4 °F 42.9 °F 44.6 °F 93% 30.06 in 6.2 mi WNW 6.9 mph - N/A   Mostly Cloudy